Weather in Turgay

Kazakhstan     49˚37′56″N   63˚29′30″E
temp.,
°C
wind,
m/s
gust,
m/s
humid.,
%
clouds,
%
prec.,
mm/h
press.,
hPa
HPBL,
m
16 january, sat
sat1600:00−8˚se51477100 0.0 1019433
03:00−8˚se51477100 0.0 1017405
06:00−9˚se41279100 0.0 1015329
09:00−9˚sse41283100 0.0 1013380
12:00−8˚s5118699 0.0 1012369
15:00−7˚ssw588988 0.0 1012422
18:00−9˚wsw489393 0.0 1013161
21:00−10˚wsw459333 0.0 101563
17 january, sun
sun1700:00−10˚wsw489524 0.0 101895
03:00−10˚w55890 0.0 102069
06:00−12˚wsw34850 0.0 102124
09:00−12˚sw45840 0.0 102165
12:00−10˚ssw59850 0.0 1021197
15:00−7˚sw510844 0.0 1020258
18:00−9˚sw458732 0.0 102059
21:00−10˚ssw348540 0.0 102042
18 january, mon
mon1800:00−10˚ssw228366 0.0 101921
03:00−12˚sse118457 0.0 101821
06:00−11˚ene118475 0.0 101721
09:00−11˚ne3485100 0.0 101731
12:00−9˚ene3486100 0.0 1017112
15:00−8˚ne4586100 0.0 1016130
18:00−8˚ne4582100 0.0 101571
21:00−9˚ne4582100 0.0 101576
19 january, tue
tue1900:00−11˚ene558279 0.0 101475
03:00−10˚ene34830 0.0 101429
06:00−11˚ne448523 0.0 101335
09:00−12˚e448452 0.0 101240
12:00−9˚ese238541 0.0 101232
15:00−7˚sse348990 0.0 1010243
18:00−8˚ssw229495 0.0 101021
21:00−7˚wsw3696100 0.6 1010240
20 january, wed
wed2000:00−9˚wsw5994100 0.9 1012229
03:00−11˚wsw5109566 0.0 1014185
06:00−14˚wsw6129056 0.0 1018224
09:00−16˚wsw5109062 0.0 1021175
12:00−16˚w588980 0.0 1024245
15:00−15˚wnw4589100 0.0 1024242
18:00−17˚nw2391100 0.0 102527
21:00−18˚n3491100 0.0 102674